Location: Unspecified
(0.0000°N, 0.0000°E)
Time: 08:10:58
(UTC+00:00)

APRIZESAT 2 (LATINSAT D) - Visible Passes

Search period start: 09 June 2023 00:00
Search period end: 19 June 2023 00:00
Orbit: 692 x 845 km, 98.1° (Epoch: 08 June)

Date Brightness Start Highest point End Pass type
(mag) Time Alt. Az. Time Alt. Az. Time Alt. Az.
09 Jun ? 19:42:40 10° NNE 19:48:09 83° ESE 19:50:32 35° S visible
10 Jun ? 19:07:37 10° NE 19:12:25 31° ESE 19:14:21 25° SE visible
10 Jun ? 20:47:36 10° NW 20:51:12 18° WNW 20:54:37 11° WSW visible
11 Jun ? 18:34:54 10° E 18:36:42 12° ESE 18:38:09 11° ESE visible
11 Jun ? 20:10:16 10° N 20:15:30 46° WNW 20:18:25 24° SW visible
12 Jun ? 19:34:20 10° NNE 19:39:46 67° ESE 19:42:13 33° S visible
13 Jun ? 18:59:36 10° NE 19:04:01 25° ESE 19:06:00 21° SE visible
13 Jun ? 20:38:40 10° NNW 20:42:48 22° WNW 20:46:16 12° WSW visible
14 Jun ? 20:01:44 10° N 20:07:06 58° WNW 20:10:04 26° SSW visible
15 Jun ? 19:26:03 10° NNE 19:31:21 54° ESE 19:33:51 30° SSE visible
16 Jun ? 18:51:41 10° NE 18:55:36 20° ESE 18:57:38 17° SE visible
16 Jun ? 20:29:53 10° NNW 20:34:24 27° WNW 20:37:54 14° SW visible
17 Jun ? 19:53:17 10° N 19:58:41 72° WNW 20:01:41 27° SSW visible
18 Jun ? 19:17:50 10° NNE 19:22:57 43° ESE 19:25:27 26° SSE visible
18 Jun ? 20:59:32 10° NW 21:01:39 12° WNW 21:03:47 10° W visible
